Skip Page Navigation
NASA JPL Caltech
NASA Logo - Jet Propulsion Laboratory + View the NASA Portal
+ Center for Near-Earth Object Studies
JPL Home Earth Solar System Stars & Galaxies Technology
JPL Solar System Dynamics
BODIES ORBITS EPHEMERIDES TOOLS PHYSICAL DATA DISCOVERY FAQ SITE MAP
JPL Small-Body Database Browser
Search: [ help ]  
344761 (2003 WO44)
Classification: Main-belt Asteroid          SPK-ID: 2344761
Ephemeris | Orbit Diagram | Orbital Elements | Mission Design | Physical Parameters | Discovery Circumstances | Close-Approach Data ]

[ show orbit diagram ]
Orbital Elements at Epoch 2459000.5 (2020-May-31.0) TDB
Reference: JPL 15 (heliocentric ecliptic J2000)
 Element Value Uncertainty (1-sigma)   Units 
e .07367763448012832 4.4496e-08  
a 2.719675364792709 2.5755e-08 au
q 2.519296117360902 1.2743e-07 au
i 14.43649827982805 5.6527e-06 deg
node 17.05637444294785 2.3076e-05 deg
peri 41.1707853865511 5.3821e-05 deg
M 244.6022038676851 5.0705e-05 deg
tp 2459525.632674947564
(2021-Nov-07.13267495)
0.00023443 TDB
period 1638.226806033292
4.49
2.3271e-05
6.371e-08
d
yr
n .2197497920765215 3.1215e-09 deg/d
Q 2.920054612224516 2.7652e-08 au
  Orbit Determination Parameters
   # obs. used (total)      263  
   data-arc span      6165 days (16.88 yr)  
   first obs. used      2003-10-27  
   last obs. used      2020-09-12  
   planetary ephem.      DE431  
   SB-pert. ephem.      SB431-N16  
   condition code      0  
   norm. resid. RMS      .63964  
   source      ORB  
   producer      Otto Matic  
   solution date      2020-Nov-11 17:01:47  

Additional Information
 Earth MOID = 1.54384 au 
 Jupiter MOID = 2.3607 au 
 T_jup = 3.310 
[ show covariance matrix ]

Ephemeris | Orbit Diagram | Orbital Elements | Mission Design | Physical Parameters | Discovery Circumstances | Close-Approach Data ]

Physical Parameter Table
Parameter Symbol Value Units Sigma Reference Notes
absolute magnitude H 16.0   n/a MPO397233  

344761 (2003 WO44)          Discovered 2003-Nov-19 by NEAT at Palomar
Reference: 20121128/Numbers.arcLast Updated: 2012-12-03

[ show close-approach data ]
Ephemeris | Orbit Diagram | Orbital Elements | Mission Design | Physical Parameters | Discovery Circumstances | Close-Approach Data ]
ABOUT SSD CREDITS/AWARDS PRIVACY/COPYRIGHT GLOSSARY LINKS
FirstGov 2020-Nov-27 04:06 UT
(server date/time)  
NASA Home Page
Site Manager:   Ryan S. Park
Webmaster  Alan B. Chamberlin